Location: Ferintosh
(52.7647°N, 112.9692°W)
Time: 13:22:28
(UTC+00:00)

Transit 2A Rocket - Pass Details

Date: 24 May 2024
Orbit: 583 x 910 km, 66.7° (Epoch: 14 June)

Event Time Altitude Azimuth Distance (km) Brightness Sun altitude
Rises 13:47:16 0° 273° (W) 3,135 7.6 19.3°
Reaches altitude 10° 13:49:59 10° 287° (WNW) 2,275 7.0 19.7°
Maximum altitude 13:54:12 24° 341° (NNW) 1,601 6.7 20.3°
Drops below altitude 10° 13:58:44 10° 34° (NE) 2,454 8.3 21.0°
Sets 14:01:48 0° 48° (NE) 3,442 9.3 21.4°
